Weather observations for the past three days for
Elizabeth City C/G Regional Airport
Metric (Imperial)
Date Time (edt) Wind (kph) Vis. (km) Weather Sky Cond. Temperature (ºC) Relative Humidity Wind Chill (°C) Heat Index (°C) Pressure Precipitation (cm)
Air Dwpt 6 hour altimeter (cm) sea level (mb) 1 hr 3 hr 6 hr
Max. Min.
02 12:54 Vrbl 6 16.09 Fair CLR 32.8 24.4 61% 39 76.3 1017.0
02 11:54 N 9 16.09 Fair CLR 31.7 25 68% 39 76.33 1017.4
02 10:54 Vrbl 11 16.09 Fair CLR 31.1 25 70% 38 76.3 1017.2
02 09:54 SW 7 16.09 Fair CLR 28.9 23.9 74% 33 76.28 1016.9
02 08:54 W 9 16.09 Fair CLR 27.2 23.9 82% 30 76.3 1017.1
02 07:54 W 13 16.09 Fair CLR 25.6 22.8 25.6 23.3 85% 27 76.3 1017.2
02 06:54 SW 11 16.09 Fair CLR 23.9 22.8 94% 23 76.28 1016.7
02 05:54 SW 7 16.09 Fair CLR 23.9 22.2 90% 23 76.28 1016.7
02 04:54 SW 7 16.09 Fair CLR 23.9 22.2 90% 23 76.25 1016.5
02 03:54 SW 9 16.09 Fair CLR 24.4 22.2 88% 25 76.25 1016.4
02 02:54 SW 11 16.09 Fair CLR 25 22.2 85% 26 76.28 1016.9
02 01:54 Calm 16.09 Fair CLR 25 22.2 28.9 25 85% 26 76.3 1017.0
02 00:54 SW 11 16.09 Fair CLR 25.6 22.2 82% 27 76.3 1017.0
01 23:54 SW 13 16.09 Fair CLR 26.7 22.8 79% 29 76.25 1016.4
01 22:54 SW 15 16.09 Fair CLR 27.2 23.9 82% 30 76.25 1016.4
01 21:54 SW 15 16.09 Fair CLR 27.8 23.9 79% 32 76.23 1016.1
01 20:54 S 11 16.09 Fair CLR 28.3 23.3 74% 32 76.17 1015.6
01 19:54 S 11 16.09 Fair CLR 28.9 24.4 33.9 28.9 77% 34 76.17 1015.4
01 18:54 S 11 16.09 A Few Clouds FEW065 30 23.9 70% 35 76.2 1015.9
01 17:54 SW 13 16.09 Fair CLR 32.2 22.2 56% 36 76.2 1015.8
01 16:54 S 15 16.09 Fair CLR 33.3 22.2 52% 38 76.2 1015.7
01 15:54 SW 19 16.09 Partly Cloudy SCT049 SCT060 33.3 22.8 54% 38 76.23 1016.0
01 14:54 Vrbl 6 16.09 Partly Cloudy FEW055 SCT070 33.3 22.8 54% 38 76.25 1016.4
01 13:54 W 11 16.09 Fair CLR 32.8 23.3 33.3 25.6 57% 38 76.28 1016.7
01 12:54 W 7 16.09 Fair CLR 32.8 22.8 56% 38 76.3 1017.1
01 11:54 SW 9 16.09 Fair CLR 31.7 23.3 61% 37 76.35 1017.8
01 10:54 Vrbl 11 16.09 Fair CLR 31.1 23.3 63% 36 76.38 1018.2
01 09:54 SW 11 16.09 Fair CLR 29.4 23.9 72% 34 76.38 1018.2
01 08:54 Vrbl 9 16.09 Fair CLR 27.2 23.9 82% 30 76.38 1018.3
01 07:54 SW 7 16.09 Fair CLR 25.6 23.9 25.6 22.8 90% 27 76.38 1018.2
01 06:54 SW 6 16.09 Fair CLR 23.3 22.2 94% 76.33 1017.7
01 05:54 SW 7 16.09 Fair CLR 23.9 22.8 94% 23 76.3 1017.3
01 04:54 SW 6 16.09 Fair CLR 23.3 23.3 100% 76.33 1017.7
01 03:54 Calm 16.09 Fair CLR 24.4 23.3 94% 24 76.35 1017.9
01 02:54 W 6 16.09 Fair CLR 23.3 23.3 100% 76.38 1018.2
01 01:54 S 6 16.09 Fair CLR 24.4 22.8 27.8 23.3 91% 24 76.4 1018.5
01 00:54 Calm 16.09 Fair CLR 23.9 22.2 90% 23 76.43 1018.7
31 23:54 SW 9 16.09 Fair CLR 25.6 22.8 85% 27 76.4 1018.6
31 22:54 S 9 16.09 Fair CLR 25.6 22.8 85% 27 76.4 1018.5
31 21:54 S 9 16.09 A Few Clouds FEW110 26.7 22.8 79% 29 76.4 1018.6
31 20:54 SE 7 16.09 Partly Cloudy SCT085 27.8 21.1 67% 30 76.4 1018.5
31 19:54 E 7 16.09 A Few Clouds FEW080 27.2 22.2 31.7 27.2 74% 30 76.35 1018.0
31 18:54 SE 9 16.09 Fair CLR 28.9 21.7 65% 32 76.38 1018.1
31 17:54 SE 15 16.09 Fair CLR 30.6 21.7 59% 34 76.38 1018.1
31 16:54 E 17 16.09 Fair CLR 31.1 22.8 61% 35 76.35 1018.0
31 15:54 SE 15 16.09 Fair CLR 31.7 21.7 55% 35 76.38 1018.2
31 14:54 SE 13 16.09 Fair CLR 31.1 22.2 59% 35 76.4 1018.7
31 13:54 S 9 16.09 Fair CLR 31.7 22.2 32.2 23.3 57% 36 76.43 1018.8
31 12:54 NE 9 16.09 Fair CLR 31.1 20.6 54% 34 76.48 1019.4
31 11:54 N 7 16.09 Fair CLR 30 21.7 61% 33 76.5 1019.7
31 10:54 N 7 16.09 Fair CLR 28.9 22.8 70% 32 76.5 1019.8
31 09:54 N 7 16.09 Fair CLR 27.8 22.8 74% 31 76.48 1019.5
31 08:54 NW 7 16.09 Fair CLR 25.6 22.8 85% 27 76.45 1019.2
31 07:54 Calm 16.09 Fair CLR 22.8 22.8 23.3 20.6 100% 76.48 1019.5
31 06:54 NW 6 1.21 Fog/Mist CLR 21.1 21.1 100% 76.45 1019.3
31 05:54 Calm 0.80 Fog VV002 21.1 21.1 100% 76.43 1018.9
31 04:54 Calm 0.80 Fog CLR 22.2 22.2 100% 76.43 1019.0
31 03:54 Calm 4.02 Fog/Mist FEW002 21.1 21.1 100% 76.43 1019.0
31 02:54 Calm 14.48 Fair CLR 22.8 22.8 100% 76.43 1019.0
31 01:54 S 7 16.09 Fair CLR 21.7 21.7 26.1 21.7 100% 76.48 1019.6
31 00:54 Calm 9.66 Fog/Mist CLR 22.2 21.7 97% 76.5 1019.8
30 23:54 Calm 16.09 Fair CLR 23.3 22.8 97% 76.5 1020.0
30 22:54 Calm 16.09 Fair CLR 24.4 23.3 94% 24 76.5 1019.9
30 21:54 Calm 16.09 Fair CLR 23.9 23.3 96% 23 76.53 1020.2
30 20:54 S 6 16.09 Fair CLR 24.4 22.8 91% 24 76.5 1019.9
30 19:54 S 13 16.09 Fair CLR 26.1 23.3 30 26.1 85% 28 76.5 1019.8
30 18:54 SE 9 16.09 Fair CLR 27.2 22.2 74% 30 76.53 1020.3
30 17:54 SE 13 16.09 Fair CLR 28.3 21.7 67% 31 76.5 1020.0
30 16:54 SE 17 16.09 Fair CLR 29.4 22.2 65% 33 76.5 1019.8
30 15:54 SE 15 16.09 Fair CLR 29.4 22.8 68% 33 76.53 1020.1
30 14:54 SE 9 16.09 Fair CLR 30 22.2 63% 33 76.58 1020.8
30 13:54 S 11 16.09 A Few Clouds FEW026 29.4 23.3 30 25 70% 34 76.58 1021.1
Date Time (edt) Wind (kph) Vis. (km) Weather Sky Cond. Air Dwpt Max. Min. Relative Humidity Wind Chill (°C) Heat Index (°C) altimeter (cm) sea level (mb) 1 hr 3 hr 6 hr
6 hour
Temperature (ºC) Pressure Precipitation (cm)